Location: Observatory
(52.1446°N, 0.4624°W)
Time: 15:52:43
(UTC+01:00)

ISS - Pass Details

Date: 07 January 2018
Orbit: 402 x 409 km, 51.6° (Epoch: 17 August)

Event Time Altitude Azimuth Distance (km) Brightness Sun altitude
Exits shadow 05:05:41 25° 89° (E) 895 -1.4 -26.9°
Drops below altitude 10° 05:07:15 10° 88° (E) 1,512 0.1 -26.7°
Enters shadow 06:02:35 -70° 278° (W) 12,419 3.7 -18.3°
Maximum altitude 06:40:31 65° 195° (SSW) 471 -3.5 -12.7°
